Wetterdaten: Donnerstag, 12.09.2013
Datum Zeit Temperatur Luftfeuchte Luftdruck Regen Wind Richtung Richtung Taupunkt Windchill Windben
12.09.2013 00:00 7,2 C 92 % 1017,3 hPa 0,0 l/m 0,5 km/h (0 Bft) NO 45 6,0 C 7,0 C 1,9 km/h (1 Bft)
12.09.2013 00:05 7,3 C 92 % 1017,3 hPa 0,0 l/m 0,5 km/h (0 Bft) NO 45 6,1 C 7,0 C 1,8 km/h (1 Bft)
12.09.2013 00:10 7,4 C 92 % 1017,3 hPa 0,0 l/m 0,6 km/h (0 Bft) NO 45 6,2 C 7,1 C 2,9 km/h (1 Bft)
12.09.2013 00:14 7,4 C 92 % 1017,3 hPa 0,0 l/m 1,0 km/h (0 Bft) O 90 6,2 C 7,2 C 0,0 km/h (0 Bft)
12.09.2013 00:19 7,3 C 92 % 1017,2 hPa 0,0 l/m 1,0 km/h (0 Bft) S 180 6,1 C 7,1 C 2,7 km/h (1 Bft)
12.09.2013 00:24 7,0 C 92 % 1017,2 hPa 0,0 l/m 0,8 km/h (0 Bft) S 180 5,8 C 7,2 C 0,0 km/h (0 Bft)
12.09.2013 00:29 7,1 C 92 % 1017,2 hPa 0,0 l/m 0,8 km/h (0 Bft) SO 135 5,9 C 7,4 C 2,6 km/h (1 Bft)
12.09.2013 00:32 7,1 C 92 % 1017,2 hPa 0,0 l/m 0,8 km/h (0 Bft) SO 135 5,9 C 7,4 C 2,6 km/h (1 Bft)
12.09.2013 00:35 7,2 C 92 % 1017,2 hPa 0,0 l/m 0,5 km/h (0 Bft) O-NO 67 6,0 C 7,3 C 0,0 km/h (0 Bft)
12.09.2013 00:40 7,1 C 92 % 1017,8 hPa 0,0 l/m 0,5 km/h (0 Bft) NO 45 5,9 C 7,2 C 0,0 km/h (0 Bft)
12.09.2013 00:44 7,0 C 92 % 1017,8 hPa 0,0 l/m 0,2 km/h (0 Bft) O 90 5,8 C 7,0 C 0,0 km/h (0 Bft)
12.09.2013 00:49 7,1 C 92 % 1017,8 hPa 0,0 l/m 0,2 km/h (0 Bft) NO 45 5,9 C 6,9 C 0,0 km/h (0 Bft)
12.09.2013 00:51 7,1 C 92 % 1017,8 hPa 0,0 l/m 0,2 km/h (0 Bft) NO 45 5,9 C 6,9 C 0,0 km/h (0 Bft)
12.09.2013 00:55 7,0 C 92 % 1017,8 hPa 0,0 l/m 1,0 km/h (0 Bft) O 90 5,8 C 6,8 C 2,1 km/h (1 Bft)
12.09.2013 01:00 7,0 C 92 % 1017,2 hPa 0,0 l/m 1,0 km/h (0 Bft) O-NO 67 5,8 C 6,8 C 0,0 km/h (0 Bft)
12.09.2013 01:05 6,9 C 93 % 1017,2 hPa 0,0 l/m 0,5 km/h (0 Bft) NO 45 5,8 C 6,7 C 0,0 km/h (0 Bft)
12.09.2013 01:09 6,9 C 93 % 1017,2 hPa 0,0 l/m 0,2 km/h (0 Bft) O 90 5,8 C 6,8 C 0,0 km/h (0 Bft)
12.09.2013 01:10 6,9 C 93 % 1017,2 hPa 0,0 l/m 0,2 km/h (0 Bft) O 90 5,8 C 6,8 C 0,0 km/h (0 Bft)
12.09.2013 01:15 7,3 C 93 % 1017,2 hPa 0,0 l/m 0,5 km/h (0 Bft) O 90 6,2 C 7,0 C 2,3 km/h (1 Bft)
12.09.2013 01:19 7,5 C 93 % 1017,1 hPa 0,0 l/m 0,6 km/h (0 Bft) NO 45 6,4 C 7,1 C 3,1 km/h (1 Bft)
12.09.2013 01:21 7,5 C 93 % 1017,1 hPa 0,0 l/m 0,6 km/h (0 Bft) NO 45 6,4 C 7,1 C 3,1 km/h (1 Bft)
12.09.2013 01:25 7,4 C 92 % 1017,1 hPa 0,0 l/m 0,5 km/h (0 Bft) O-NO 67 6,2 C 7,2 C 0,0 km/h (0 Bft)
12.09.2013 01:29 7,2 C 92 % 1017,1 hPa 0,0 l/m 0,2 km/h (0 Bft) N 360 6,0 C 7,2 C 0,0 km/h (0 Bft)
12.09.2013 01:34 6,9 C 93 % 1017,1 hPa 0,0 l/m 0,2 km/h (0 Bft) SO 135 5,8 C 7,0 C 1,9 km/h (1 Bft)
12.09.2013 01:39 6,9 C 93 % 1017,4 hPa 0,0 l/m 0,2 km/h (0 Bft) O 90 5,8 C 6,9 C 0,0 km/h (0 Bft)
12.09.2013 01:44 7,1 C 92 % 1017,4 hPa 0,0 l/m 0,8 km/h (0 Bft) NO 45 5,9 C 6,9 C 1,6 km/h (1 Bft)
12.09.2013 01:49 7,2 C 92 % 1017,4 hPa 0,0 l/m 1,0 km/h (0 Bft) NO 45 6,0 C 7,0 C 2,6 km/h (1 Bft)
12.09.2013 01:54 7,2 C 93 % 1017,4 hPa 0,0 l/m 1,1 km/h (1 Bft) O-SO 112 6,1 C 7,0 C 0,0 km/h (0 Bft)
12.09.2013 01:57 7,2 C 93 % 1017,4 hPa 0,0 l/m 1,1 km/h (1 Bft) O-SO 112 6,1 C 7,0 C 0,0 km/h (0 Bft)
12.09.2013 02:00 7,1 C 93 % 1017,4 hPa 0,0 l/m 0,8 km/h (0 Bft) O-SO 112 6,0 C 7,0 C 0,0 km/h (0 Bft)
12.09.2013 02:05 7,1 C 93 % 1017,4 hPa 0,0 l/m 1,3 km/h (1 Bft) O-SO 112 6,0 C 7,1 C 0,0 km/h (0 Bft)
12.09.2013 02:10 7,1 C 93 % 1017,4 hPa 0,0 l/m 1,3 km/h (1 Bft) S 180 6,0 C 7,1 C 0,0 km/h (0 Bft)
12.09.2013 02:15 7,3 C 93 % 1017,4 hPa 0,0 l/m 1,4 km/h (1 Bft) S 180 6,2 C 7,4 C 3,4 km/h (1 Bft)
12.09.2013 02:20 7,4 C 93 % 1016,6 hPa 0,0 l/m 2,3 km/h (1 Bft) S 180 6,3 C 7,7 C 7,7 km/h (2 Bft)
12.09.2013 02:25 7,4 C 93 % 1016,6 hPa 0,0 l/m 2,1 km/h (1 Bft) N-NO 22 6,3 C 7,7 C 0,0 km/h (0 Bft)
12.09.2013 02:30 7,4 C 93 % 1016,6 hPa 0,0 l/m 1,4 km/h (1 Bft) S-SW 202 6,3 C 7,7 C 3,1 km/h (1 Bft)
12.09.2013 02:35 7,5 C 93 % 1016,6 hPa 0,0 l/m 1,3 km/h (1 Bft) SO 135 6,4 C 7,9 C 3,9 km/h (1 Bft)
12.09.2013 02:40 7,5 C 93 % 1016,7 hPa 0,0 l/m 1,3 km/h (1 Bft) S-SO 157 6,4 C 7,9 C 2,1 km/h (1 Bft)
12.09.2013 02:45 7,8 C 94 % 1016,7 hPa 0,0 l/m 1,0 km/h (0 Bft) S-SO 157 6,9 C 8,1 C 2,3 km/h (1 Bft)
12.09.2013 02:50 7,8 C 94 % 1016,7 hPa 0,0 l/m 1,4 km/h (1 Bft) S 180 6,9 C 8,0 C 3,9 km/h (1 Bft)
12.09.2013 02:55 7,9 C 94 % 1016,7 hPa 0,0 l/m 2,4 km/h (1 Bft) SO 135 7,0 C 7,9 C 2,6 km/h (1 Bft)
12.09.2013 03:00 7,8 C 94 % 1016,8 hPa 0,0 l/m 3,2 km/h (1 Bft) S-SW 202 6,9 C 7,7 C 4,0 km/h (1 Bft)
12.09.2013 03:05 7,7 C 94 % 1016,8 hPa 0,0 l/m 3,4 km/h (1 Bft) S 180 6,8 C 7,7 C 3,2 km/h (1 Bft)
12.09.2013 03:10 7,7 C 94 % 1016,8 hPa 0,0 l/m 4,0 km/h (1 Bft) S 180 6,8 C 7,4 C 8,9 km/h (2 Bft)
12.09.2013 03:15 7,6 C 94 % 1016,8 hPa 0,7 l/m 4,0 km/h (1 Bft) SO 135 6,7 C 7,4 C 4,8 km/h (1 Bft)
12.09.2013 03:20 7,5 C 94 % 1016,8 hPa 0,0 l/m 3,2 km/h (1 Bft) S-SO 157 6,6 C 7,6 C 10,1 km/h (2 Bft)
12.09.2013 03:25 7,5 C 94 % 1016,8 hPa 0,7 l/m 2,6 km/h (1 Bft) S 180 6,6 C 7,5 C 3,7 km/h (1 Bft)
12.09.2013 03:30 7,5 C 94 % 1016,8 hPa 0,0 l/m 2,1 km/h (1 Bft) SO 135 6,6 C 7,5 C 2,3 km/h (1 Bft)
12.09.2013 03:35 7,5 C 94 % 1016,8 hPa 0,0 l/m 1,4 km/h (1 Bft) S-SO 157 6,6 C 7,5 C 2,7 km/h (1 Bft)
12.09.2013 03:40 7,5 C 94 % 1016,4 hPa 0,0 l/m 2,4 km/h (1 Bft) S-SO 157 6,6 C 7,5 C 8,4 km/h (2 Bft)
12.09.2013 03:45 7,5 C 94 % 1016,4 hPa 0,0 l/m 2,7 km/h (1 Bft) O 90 6,6 C 7,5 C 3,5 km/h (1 Bft)
12.09.2013 03:50 7,5 C 94 % 1016,4 hPa 0,7 l/m 2,6 km/h (1 Bft) O-SO 112 6,6 C 7,5 C 3,1 km/h (1 Bft)
12.09.2013 03:55 7,5 C 94 % 1016,4 hPa 0,0 l/m 2,4 km/h (1 Bft) S-SW 202 6,6 C 7,5 C 1,9 km/h (1 Bft)
12.09.2013 04:00 7,5 C 94 % 1016,6 hPa 0,0 l/m 2,9 km/h (1 Bft) SO 135 6,6 C 7,5 C 4,0 km/h (1 Bft)
12.09.2013 04:05 7,5 C 94 % 1016,6 hPa 0,7 l/m 3,5 km/h (1 Bft) O-SO 112 6,6 C 7,5 C 4,7 km/h (1 Bft)
12.09.2013 04:10 7,5 C 94 % 1016,6 hPa 0,0 l/m 3,4 km/h (1 Bft) S-SO 157 6,6 C 7,5 C 4,0 km/h (1 Bft)
12.09.2013 04:15 7,4 C 95 % 1016,6 hPa 0,0 l/m 3,4 km/h (1 Bft) S 180 6,7 C 7,4 C 5,8 km/h (2 Bft)
12.09.2013 04:20 7,4 C 95 % 1016,4 hPa 0,0 l/m 3,4 km/h (1 Bft) S 180 6,7 C 7,4 C 3,9 km/h (1 Bft)
12.09.2013 04:25 7,4 C 95 % 1016,4 hPa 0,0 l/m 2,9 km/h (1 Bft) S 180 6,7 C 7,4 C 1,8 km/h (1 Bft)
12.09.2013 04:30 7,4 C 95 % 1016,4 hPa 0,0 l/m 3,1 km/h (1 Bft) S-SO 157 6,7 C 7,4 C 3,2 km/h (1 Bft)
12.09.2013 04:35 7,4 C 95 % 1016,4 hPa 0,0 l/m 2,9 km/h (1 Bft) S 180 6,7 C 7,4 C 2,6 km/h (1 Bft)
12.09.2013 04:40 7,4 C 95 % 1016,6 hPa 0,0 l/m 2,9 km/h (1 Bft) SO 135 6,7 C 7,4 C 7,1 km/h (2 Bft)
12.09.2013 04:45 7,4 C 95 % 1016,6 hPa 0,0 l/m 2,4 km/h (1 Bft) O-SO 112 6,7 C 7,4 C 3,4 km/h (1 Bft)
12.09.2013 04:50 7,4 C 95 % 1016,6 hPa 0,0 l/m 2,7 km/h (1 Bft) SO 135 6,7 C 7,4 C 6,8 km/h (2 Bft)
12.09.2013 04:55 7,4 C 95 % 1016,6 hPa 0,0 l/m 2,3 km/h (1 Bft) SW 225 6,7 C 7,4 C 0,0 km/h (0 Bft)
12.09.2013 05:00 7,4 C 95 % 1016,3 hPa 0,0 l/m 2,4 km/h (1 Bft) S-SW 202 6,7 C 7,4 C 2,1 km/h (1 Bft)
12.09.2013 05:05 7,4 C 95 % 1016,3 hPa 0,0 l/m 2,6 km/h (1 Bft) S 180 6,7 C 7,4 C 2,7 km/h (1 Bft)
12.09.2013 05:10 7,4 C 95 % 1016,3 hPa 0,0 l/m 2,3 km/h (1 Bft) SO 135 6,7 C 7,4 C 0,0 km/h (0 Bft)
12.09.2013 05:15 7,4 C 95 % 1016,3 hPa 0,0 l/m 2,1 km/h (1 Bft) SW 225 6,7 C 7,3 C 0,0 km/h (0 Bft)
12.09.2013 05:20 7,3 C 95 % 1016,2 hPa 0,0 l/m 1,8 km/h (1 Bft) NO 45 6,6 C 7,3 C 3,2 km/h (1 Bft)
12.09.2013 05:25 7,2 C 95 % 1016,2 hPa 0,0 l/m 1,4 km/h (1 Bft) S 180 6,5 C 7,3 C 1,8 km/h (1 Bft)
12.09.2013 05:30 7,3 C 95 % 1016,2 hPa 0,0 l/m 1,4 km/h (1 Bft) W-SW 247 6,6 C 7,3 C 0,0 km/h (0 Bft)
12.09.2013 05:35 7,3 C 95 % 1016,2 hPa 0,0 l/m 1,1 km/h (1 Bft) O-SO 112 6,6 C 7,3 C 2,3 km/h (1 Bft)
12.09.2013 05:40 7,2 C 95 % 1016,0 hPa 0,0 l/m 0,8 km/h (0 Bft) O-SO 112 6,5 C 7,3 C 0,0 km/h (0 Bft)
12.09.2013 05:45 7,3 C 95 % 1016,0 hPa 0,0 l/m 1,3 km/h (1 Bft) S 180 6,6 C 7,3 C 1,8 km/h (1 Bft)
12.09.2013 05:50 7,3 C 95 % 1016,0 hPa 0,0 l/m 1,8 km/h (1 Bft) W-SW 247 6,6 C 7,3 C 6,1 km/h (2 Bft)
12.09.2013 05:55 7,3 C 95 % 1016,0 hPa 0,0 l/m 1,1 km/h (1 Bft) N 360 6,6 C 7,3 C 0,0 km/h (0 Bft)
12.09.2013 06:00 7,3 C 95 % 1016,1 hPa 0,0 l/m 0,6 km/h (0 Bft) W-SW 247 6,6 C 7,3 C 0,0 km/h (0 Bft)
12.09.2013 06:05 7,2 C 95 % 1016,1 hPa 0,0 l/m 0,6 km/h (0 Bft) S-SO 157 6,5 C 7,2 C 2,7 km/h (1 Bft)
12.09.2013 06:10 7,2 C 95 % 1016,1 hPa 0,0 l/m 0,8 km/h (0 Bft) S 180 6,5 C 7,2 C 3,5 km/h (1 Bft)
12.09.2013 06:15 7,2 C 95 % 1016,1 hPa 0,0 l/m 1,0 km/h (0 Bft) S 180 6,5 C 7,2 C 2,1 km/h (1 Bft)
12.09.2013 06:20 7,2 C 95 % 1016,3 hPa 0,0 l/m 1,1 km/h (1 Bft) O-SO 112 6,5 C 7,2 C 0,0 km/h (0 Bft)
12.09.2013 06:25 7,2 C 95 % 1016,3 hPa 0,0 l/m 1,6 km/h (1 Bft) S-SO 157 6,5 C 7,1 C 3,7 km/h (1 Bft)
12.09.2013 06:30 7,2 C 95 % 1016,3 hPa 0,0 l/m 2,4 km/h (1 Bft) S 180 6,5 C 7,1 C 3,7 km/h (1 Bft)
12.09.2013 06:35 7,4 C 95 % 1016,3 hPa 0,0 l/m 4,2 km/h (1 Bft) S 180 6,7 C 6,9 C 2,4 km/h (1 Bft)
12.09.2013 06:40 7,4 C 95 % 1016,4 hPa 0,0 l/m 4,3 km/h (1 Bft) NO 45 6,7 C 7,0 C 10,3 km/h (2 Bft)
12.09.2013 06:45 7,4 C 95 % 1016,4 hPa 0,0 l/m 3,4 km/h (1 Bft) S 180 6,7 C 7,4 C 5,0 km/h (1 Bft)
12.09.2013 06:50 7,4 C 95 % 1016,4 hPa 0,0 l/m 2,9 km/h (1 Bft) SO 135 6,7 C 7,5 C 3,5 km/h (1 Bft)
12.09.2013 06:55 7,4 C 95 % 1016,4 hPa 0,0 l/m 2,7 km/h (1 Bft) NO 45 6,7 C 7,6 C 6,4 km/h (2 Bft)
12.09.2013 07:00 7,5 C 95 % 1016,5 hPa 0,0 l/m 2,6 km/h (1 Bft) S 180 6,8 C 7,6 C 4,7 km/h (1 Bft)
12.09.2013 07:05 7,5 C 95 % 1016,5 hPa 0,0 l/m 3,1 km/h (1 Bft) O-SO 112 6,8 C 7,7 C 3,1 km/h (1 Bft)
12.09.2013 07:10 7,5 C 95 % 1016,5 hPa 0,0 l/m 3,7 km/h (1 Bft) S-SO 157 6,8 C 7,6 C 11,3 km/h (2 Bft)
12.09.2013 07:15 7,5 C 95 % 1016,5 hPa 0,0 l/m 3,2 km/h (1 Bft) S 180 6,8 C 7,6 C 3,9 km/h (1 Bft)
12.09.2013 07:20 7,5 C 95 % 1016,8 hPa 0,0 l/m 2,7 km/h (1 Bft) SO 135 6,8 C 7,6 C 11,6 km/h (2 Bft)
12.09.2013 07:25 7,6 C 95 % 1016,8 hPa 0,0 l/m 1,1 km/h (1 Bft) S-SO 157 6,9 C 7,7 C 1,8 km/h (1 Bft)
12.09.2013 07:30 7,6 C 95 % 1016,8 hPa 0,0 l/m 1,1 km/h (1 Bft) S-SO 157 6,9 C 7,7 C 3,7 km/h (1 Bft)
12.09.2013 07:35 7,6 C 95 % 1016,8 hPa 0,0 l/m 1,3 km/h (1 Bft) S-SO 157 6,9 C 7,8 C 4,3 km/h (1 Bft)
12.09.2013 07:40 7,6 C 95 % 1016,7 hPa 0,0 l/m 1,6 km/h (1 Bft) S 180 6,9 C 7,8 C 4,2 km/h (1 Bft)
12.09.2013 07:45 7,6 C 95 % 1016,7 hPa 0,0 l/m 2,1 km/h (1 Bft) S 180 6,9 C 7,8 C 0,0 km/h (0 Bft)
12.09.2013 07:50 7,6 C 95 % 1016,7 hPa 0,0 l/m 1,8 km/h (1 Bft) SO 135 6,9 C 7,7 C 3,4 km/h (1 Bft)
12.09.2013 07:55 7,6 C 95 % 1016,7 hPa 0,0 l/m 2,3 km/h (1 Bft) S 180 6,9 C 7,7 C 2,3 km/h (1 Bft)
12.09.2013 08:00 7,6 C 95 % 1016,7 hPa 0,0 l/m 2,6 km/h (1 Bft) S 180 6,9 C 7,7 C 0,0 km/h (0 Bft)
12.09.2013 08:05 7,7 C 95 % 1016,7 hPa 0,0 l/m 0,8 km/h (0 Bft) S-SO 157 7,0 C 7,7 C 3,5 km/h (1 Bft)
12.09.2013 08:10 7,8 C 95 % 1016,7 hPa 0,0 l/m 1,3 km/h (1 Bft) O-SO 112 7,0 C 7,7 C 1,9 km/h (1 Bft)
12.09.2013 08:15 7,8 C 95 % 1016,7 hPa 0,0 l/m 1,9 km/h (1 Bft) SO 135 7,0 C 7,7 C 4,2 km/h (1 Bft)
12.09.2013 08:20 8,0 C 95 % 1016,7 hPa 0,0 l/m 2,1 km/h (1 Bft) S-SO 157 7,2 C 7,9 C 4,0 km/h (1 Bft)
12.09.2013 08:25 8,1 C 95 % 1016,7 hPa 0,0 l/m 2,9 km/h (1 Bft) S-SO 157 7,3 C 8,1 C 2,9 km/h (1 Bft)
12.09.2013 08:30 8,2 C 95 % 1016,7 hPa 0,0 l/m 1,9 km/h (1 Bft) S-SW 202 7,4 C 8,2 C 1,9 km/h (1 Bft)
12.09.2013 08:35 8,2 C 95 % 1016,7 hPa 0,0 l/m 1,8 km/h (1 Bft) S 180 7,4 C 8,3 C 4,0 km/h (1 Bft)
12.09.2013 08:40 8,3 C 95 % 1016,8 hPa 0,0 l/m 2,3 km/h (1 Bft) W-NW 292 7,5 C 8,4 C 1,8 km/h (1 Bft)
12.09.2013 08:45 8,2 C 95 % 1016,8 hPa 0,0 l/m 2,9 km/h (1 Bft) S 180 7,4 C 8,2 C 7,9 km/h (2 Bft)
12.09.2013 08:50 8,1 C 95 % 1016,8 hPa 0,0 l/m 1,9 km/h (1 Bft) NO 45 7,3 C 8,0 C 0,0 km/h (0 Bft)
12.09.2013 08:55 8,1 C 95 % 1016,8 hPa 0,0 l/m 1,0 km/h (0 Bft) S 180 7,3 C 8,1 C 1,9 km/h (1 Bft)
12.09.2013 09:00 8,1 C 95 % 1016,8 hPa 0,0 l/m 0,3 km/h (0 Bft) O 90 7,3 C 8,1 C 0,0 km/h (0 Bft)
12.09.2013 09:05 8,2 C 95 % 1016,8 hPa 0,0 l/m 0,5 km/h (0 Bft) NO 45 7,4 C 8,3 C 4,2 km/h (1 Bft)
12.09.2013 09:10 8,3 C 95 % 1016,8 hPa 0,0 l/m 1,1 km/h (1 Bft) SO 135 7,5 C 8,2 C 1,9 km/h (1 Bft)
12.09.2013 09:15 8,3 C 95 % 1016,8 hPa 0,0 l/m 1,4 km/h (1 Bft) S 180 7,5 C 8,2 C 0,0 km/h (0 Bft)
12.09.2013 09:20 8,4 C 95 % 1017,0 hPa 0,0 l/m 0,8 km/h (0 Bft) S-SO 157 7,6 C 8,3 C 1,8 km/h (1 Bft)
12.09.2013 09:25 8,4 C 95 % 1017,0 hPa 0,0 l/m 0,2 km/h (0 Bft) S 180 7,6 C 8,4 C 0,0 km/h (0 Bft)
12.09.2013 09:30 8,5 C 95 % 1017,0 hPa 0,0 l/m 0,2 km/h (0 Bft) S-SO 157 7,7 C 8,6 C 0,0 km/h (0 Bft)
12.09.2013 09:35 8,6 C 95 % 1017,0 hPa 0,7 l/m 0,0 km/h (0 Bft) O-NO 67 7,8 C 8,8 C 0,0 km/h (0 Bft)
12.09.2013 09:40 8,8 C 95 % 1017,2 hPa 0,0 l/m 0,0 km/h (0 Bft) S 180 8,0 C 9,0 C 0,0 km/h (0 Bft)
12.09.2013 09:45 8,7 C 95 % 1017,2 hPa 0,0 l/m 0,3 km/h (0 Bft) S 180 7,9 C 8,8 C 3,1 km/h (1 Bft)
12.09.2013 09:50 8,4 C 95 % 1017,2 hPa 0,0 l/m 1,8 km/h (1 Bft) S-SO 157 7,6 C 8,6 C 3,1 km/h (1 Bft)
12.09.2013 09:55 8,2 C 95 % 1017,2 hPa 0,7 l/m 2,4 km/h (1 Bft) N-NO 22 7,4 C 8,4 C 2,6 km/h (1 Bft)
12.09.2013 10:00 8,4 C 95 % 1017,4 hPa 0,0 l/m 1,1 km/h (1 Bft) O 90 7,6 C 8,5 C 0,0 km/h (0 Bft)
12.09.2013 10:05 8,7 C 94 % 1017,4 hPa 0,0 l/m 0,8 km/h (0 Bft) N-NO 22 7,8 C 8,8 C 0,0 km/h (0 Bft)
12.09.2013 10:10 8,7 C 94 % 1017,4 hPa 0,0 l/m 0,6 km/h (0 Bft) O 90 7,8 C 8,8 C 0,0 km/h (0 Bft)
12.09.2013 10:15 9,2 C 94 % 1017,4 hPa 0,0 l/m 0,2 km/h (0 Bft) S-SW 202 8,3 C 9,2 C 0,0 km/h (0 Bft)
12.09.2013 10:20 9,5 C 94 % 1017,4 hPa 0,0 l/m 0,5 km/h (0 Bft) SO 135 8,6 C 9,5 C 2,1 km/h (1 Bft)
12.09.2013 10:25 10,6 C 94 % 1017,4 hPa 0,0 l/m 1,6 km/h (1 Bft) S-SO 157 9,7 C 10,2 C 7,6 km/h (2 Bft)
12.09.2013 10:30 11,2 C 94 % 1017,4 hPa 0,0 l/m 4,0 km/h (1 Bft) S 180 10,3 C 11,2 C 12,4 km/h (3 Bft)
12.09.2013 10:35 10,6 C 92 % 1017,4 hPa 0,0 l/m 6,1 km/h (2 Bft) SO 135 9,4 C 11,4 C 14,2 km/h (3 Bft)
12.09.2013 10:40 10,5 C 92 % 1017,9 hPa 0,0 l/m 6,8 km/h (2 Bft) S 180 9,3 C 11,0 C 5,8 km/h (2 Bft)
12.09.2013 10:45 10,4 C 91 % 1017,9 hPa 0,0 l/m 5,8 km/h (2 Bft) S 180 9,0 C 10,8 C 6,0 km/h (2 Bft)
12.09.2013 10:50 10,3 C 90 % 1017,9 hPa 0,0 l/m 4,5 km/h (1 Bft) S 180 8,7 C 10,8 C 3,5 km/h (1 Bft)
12.09.2013 10:55 10,8 C 89 % 1017,9 hPa 0,0 l/m 5,6 km/h (1 Bft) S-SW 202 9,1 C 10,7 C 7,1 km/h (2 Bft)
12.09.2013 11:00 12,2 C 85 % 1018,5 hPa 0,0 l/m 6,1 km/h (2 Bft) S 180 9,8 C 11,4 C 15,1 km/h (3 Bft)
12.09.2013 11:05 11,8 C 85 % 1018,5 hPa 0,0 l/m 5,3 km/h (1 Bft) S 180 9,4 C 12,4 C 7,2 km/h (2 Bft)
12.09.2013 11:10 11,0 C 83 % 1018,5 hPa 0,0 l/m 6,1 km/h (2 Bft) S 180 8,2 C 12,2 C 13,5 km/h (3 Bft)
12.09.2013 11:15 10,2 C 82 % 1018,5 hPa 0,0 l/m 8,5 km/h (2 Bft) W-SW 247 7,3 C 9,3 C 8,7 km/h (2 Bft)
12.09.2013 11:20 9,8 C 84 % 1018,1 hPa 0,0 l/m 8,9 km/h (2 Bft) NO 45 7,2 C 7,5 C 18,7 km/h (3 Bft)
12.09.2013 11:25 9,6 C 87 % 1018,1 hPa 0,0 l/m 6,1 km/h (2 Bft) S-SW 202 7,5 C 8,8 C 5,0 km/h (1 Bft)
12.09.2013 11:30 9,3 C 87 % 1018,1 hPa 0,0 l/m 5,8 km/h (2 Bft) S-SW 202 7,2 C 8,6 C 7,1 km/h (2 Bft)
12.09.2013 11:35 9,2 C 88 % 1018,1 hPa 0,0 l/m 5,6 km/h (1 Bft) S-SW 202 7,3 C 8,3 C 5,0 km/h (1 Bft)
12.09.2013 11:40 9,3 C 89 % 1018,2 hPa 0,0 l/m 5,1 km/h (1 Bft) W-SW 247 7,6 C 8,4 C 6,1 km/h (2 Bft)
12.09.2013 11:45 9,1 C 89 % 1018,2 hPa 0,0 l/m 5,0 km/h (1 Bft) W-SW 247 7,4 C 8,4 C 5,0 km/h (1 Bft)
12.09.2013 11:50 8,9 C 89 % 1018,2 hPa 0,0 l/m 5,5 km/h (1 Bft) W-SW 247 7,2 C 8,2 C 6,4 km/h (2 Bft)
12.09.2013 11:55 7,9 C 89 % 1018,2 hPa 0,0 l/m 6,0 km/h (2 Bft) NW 315 6,2 C 7,2 C 7,2 km/h (2 Bft)
12.09.2013 12:00 7,6 C 89 % 1018,4 hPa 0,7 l/m 5,8 km/h (2 Bft) W-SW 247 5,9 C 6,8 C 4,7 km/h (1 Bft)
12.09.2013 12:05 7,3 C 89 % 1018,4 hPa 0,7 l/m 5,0 km/h (1 Bft) S-SW 202 5,6 C 6,6 C 7,4 km/h (2 Bft)
12.09.2013 12:10 7,4 C 90 % 1018,4 hPa 0,0 l/m 4,2 km/h (1 Bft) O-SO 112 5,9 C 6,8 C 2,4 km/h (1 Bft)
12.09.2013 12:15 7,8 C 90 % 1018,4 hPa 0,0 l/m 2,9 km/h (1 Bft) S-SO 157 6,3 C 7,4 C 3,5 km/h (1 Bft)
12.09.2013 12:20 7,9 C 91 % 1018,4 hPa 0,0 l/m 1,8 km/h (1 Bft) S 180 6,5 C 7,7 C 3,7 km/h (1 Bft)
12.09.2013 12:25 8,2 C 91 % 1018,4 hPa 0,0 l/m 1,0 km/h (0 Bft) S-SO 157 6,8 C 8,0 C 0,0 km/h (0 Bft)
12.09.2013 12:30 8,5 C 91 % 1018,4 hPa 0,0 l/m 0,6 km/h (0 Bft) N-NO 22 7,1 C 8,5 C 0,0 km/h (0 Bft)
12.09.2013 12:35 9,2 C 91 % 1018,4 hPa 0,0 l/m 0,0 km/h (0 Bft) O-SO 112 7,8 C 9,0 C 0,0 km/h (0 Bft)
12.09.2013 12:40 9,4 C 91 % 1018,4 hPa 0,0 l/m 0,0 km/h (0 Bft) S-SW 202 8,0 C 9,5 C 0,0 km/h (0 Bft)
12.09.2013 12:45 9,6 C 91 % 1018,4 hPa 0,0 l/m 0,0 km/h (0 Bft) N 360 8,2 C 9,9 C 0,0 km/h (0 Bft)
12.09.2013 12:50 9,9 C 91 % 1018,4 hPa 0,0 l/m 0,2 km/h (0 Bft) N 360 8,5 C 10,2 C 0,0 km/h (0 Bft)
12.09.2013 12:55 10,6 C 91 % 1018,4 hPa 0,0 l/m 0,3 km/h (0 Bft) S-SW 202 9,2 C 11,0 C 1,8 km/h (1 Bft)
12.09.2013 13:00 11,2 C 91 % 1018,8 hPa 0,0 l/m 0,8 km/h (0 Bft) S-SO 157 9,8 C 11,4 C 6,4 km/h (2 Bft)
12.09.2013 13:05 11,1 C 89 % 1018,8 hPa 0,0 l/m 3,9 km/h (1 Bft) S-SO 157 9,4 C 12,0 C 4,7 km/h (1 Bft)
12.09.2013 13:10 10,8 C 89 % 1018,8 hPa 0,0 l/m 6,4 km/h (2 Bft) S 180 9,1 C 11,5 C 10,8 km/h (2 Bft)
12.09.2013 13:15 11,2 C 88 % 1018,8 hPa 0,0 l/m 6,6 km/h (2 Bft) S-SW 202 9,3 C 11,2 C 9,7 km/h (2 Bft)
12.09.2013 13:20 11,9 C 88 % 1018,6 hPa 0,0 l/m 6,1 km/h (2 Bft) S 180 10,0 C 11,6 C 7,4 km/h (2 Bft)
12.09.2013 13:25 12,5 C 85 % 1018,6 hPa 0,0 l/m 5,8 km/h (2 Bft) S 180 10,0 C 12,7 C 5,3 km/h (1 Bft)
12.09.2013 13:30 12,3 C 85 % 1018,6 hPa 0,0 l/m 5,3 km/h (1 Bft) SW 225 9,9 C 13,3 C 3,9 km/h (1 Bft)
12.09.2013 13:35 11,8 C 83 % 1018,6 hPa 0,0 l/m 5,3 km/h (1 Bft) SO 135 9,0 C 13,5 C 3,7 km/h (1 Bft)
12.09.2013 13:40 11,7 C 84 % 1018,8 hPa 0,0 l/m 4,5 km/h (1 Bft) SO 135 9,1 C 13,3 C 3,9 km/h (1 Bft)
12.09.2013 13:45 11,3 C 85 % 1018,8 hPa 0,0 l/m 4,8 km/h (1 Bft) S-SW 202 8,9 C 12,8 C 6,1 km/h (2 Bft)
12.09.2013 13:50 11,1 C 86 % 1018,8 hPa 0,0 l/m 5,0 km/h (1 Bft) S 180 8,8 C 12,1 C 3,4 km/h (1 Bft)
12.09.2013 13:55 10,1 C 84 % 1018,8 hPa 0,0 l/m 7,2 km/h (2 Bft) S-SW 202 7,5 C 9,6 C 11,3 km/h (2 Bft)
12.09.2013 14:00 9,7 C 85 % 1018,5 hPa 0,0 l/m 8,5 km/h (2 Bft) S-SO 157 7,3 C 7,3 C 9,2 km/h (2 Bft)
12.09.2013 14:05 9,6 C 87 % 1018,5 hPa 0,0 l/m 8,4 km/h (2 Bft) S-SW 202 7,5 C 6,7 C 7,9 km/h (2 Bft)
12.09.2013 14:10 9,8 C 88 % 1018,5 hPa 0,7 l/m 7,6 km/h (2 Bft) S-SO 157 7,9 C 7,4 C 19,3 km/h (3 Bft)
12.09.2013 14:15 9,6 C 88 % 1018,5 hPa 0,0 l/m 6,9 km/h (2 Bft) N 360 7,7 C 8,0 C 6,9 km/h (2 Bft)
12.09.2013 14:20 9,4 C 88 % 1018,5 hPa 0,0 l/m 8,4 km/h (2 Bft) S 180 7,5 C 6,5 C 15,1 km/h (3 Bft)
12.09.2013 14:25 9,1 C 89 % 1018,5 hPa 0,7 l/m 8,7 km/h (2 Bft) W-SW 247 7,4 C 5,8 C 4,7 km/h (1 Bft)
12.09.2013 14:30 9,0 C 89 % 1018,5 hPa 0,0 l/m 7,7 km/h (2 Bft) S-SO 157 7,3 C 6,6 C 5,8 km/h (2 Bft)
12.09.2013 14:35 8,8 C 90 % 1018,5 hPa 0,0 l/m 5,1 km/h (1 Bft) W-SW 247 7,3 C 8,1 C 2,3 km/h (1 Bft)
12.09.2013 14:40 8,7 C 91 % 1018,4 hPa 0,0 l/m 4,0 km/h (1 Bft) S 180 7,3 C 8,5 C 1,8 km/h (1 Bft)
12.09.2013 14:45 8,7 C 91 % 1018,4 hPa 0,0 l/m 2,7 km/h (1 Bft) W 270 7,3 C 8,6 C 2,1 km/h (1 Bft)
12.09.2013 14:50 8,7 C 92 % 1018,4 hPa 0,7 l/m 2,1 km/h (1 Bft) S 180 7,5 C 8,7 C 1,6 km/h (1 Bft)
12.09.2013 14:55 8,8 C 92 % 1018,4 hPa 0,0 l/m 1,3 km/h (1 Bft) SO 135 7,6 C 8,8 C 0,0 km/h (0 Bft)
12.09.2013 15:00 9,0 C 92 % 1018,4 hPa 0,0 l/m 0,6 km/h (0 Bft) O 90 7,8 C 9,0 C 0,0 km/h (0 Bft)
12.09.2013 15:05 8,9 C 93 % 1018,4 hPa 0,0 l/m 0,2 km/h (0 Bft) O-NO 67 7,8 C 9,2 C 3,5 km/h (1 Bft)
12.09.2013 15:10 8,9 C 93 % 1018,4 hPa 0,0 l/m 0,6 km/h (0 Bft) O 90 7,8 C 9,1 C 0,0 km/h (0 Bft)
12.09.2013 15:15 8,8 C 93 % 1018,4 hPa 0,7 l/m 1,3 km/h (1 Bft) S 180 7,7 C 9,0 C 0,0 km/h (0 Bft)
12.09.2013 15:20 8,8 C 93 % 1018,8 hPa 0,0 l/m 0,6 km/h (0 Bft) O-NO 67 7,7 C 8,9 C 0,0 km/h (0 Bft)
12.09.2013 15:25 8,8 C 93 % 1018,8 hPa 0,0 l/m 1,0 km/h (0 Bft) W-SW 247 7,7 C 8,8 C 6,6 km/h (2 Bft)
12.09.2013 15:30 8,6 C 93 % 1018,8 hPa 0,0 l/m 2,1 km/h (1 Bft) W-SW 247 7,5 C 8,8 C 1,6 km/h (1 Bft)
12.09.2013 15:35 8,5 C 94 % 1018,8 hPa 0,0 l/m 1,8 km/h (1 Bft) W-SW 247 7,6 C 8,7 C 0,0 km/h (0 Bft)
12.09.2013 15:40 8,5 C 94 % 1018,9 hPa 0,7 l/m 1,0 km/h (0 Bft) W 270 7,6 C 8,7 C 5,5 km/h (1 Bft)
12.09.2013 15:45 8,1 C 94 % 1018,9 hPa 1,4 l/m 2,1 km/h (1 Bft) W-NW 292 7,2 C 8,5 C 2,7 km/h (1 Bft)
12.09.2013 15:50 8,1 C 94 % 1018,9 hPa 0,7 l/m 2,3 km/h (1 Bft) NO 45 7,2 C 8,4 C 3,1 km/h (1 Bft)
12.09.2013 15:55 8,0 C 94 % 1018,9 hPa 0,7 l/m 1,9 km/h (1 Bft) W 270 7,1 C 8,3 C 6,4 km/h (2 Bft)
12.09.2013 16:00 7,9 C 94 % 1019,2 hPa 0,7 l/m 2,7 km/h (1 Bft) S 180 7,0 C 8,3 C 3,1 km/h (1 Bft)
12.09.2013 16:05 7,3 C 94 % 1019,2 hPa 0,7 l/m 3,5 km/h (1 Bft) S 180 6,4 C 7,8 C 2,6 km/h (1 Bft)
12.09.2013 16:10 7,2 C 94 % 1019,2 hPa 1,4 l/m 3,9 km/h (1 Bft) W-SW 247 6,3 C 7,5 C 5,1 km/h (1 Bft)
12.09.2013 16:15 7,0 C 94 % 1019,2 hPa 0,7 l/m 5,6 km/h (1 Bft) SO 135 6,1 C 6,4 C 3,1 km/h (1 Bft)
12.09.2013 16:20 6,9 C 94 % 1019,2 hPa 0,0 l/m 4,7 km/h (1 Bft) S-SO 157 6,0 C 6,7 C 6,3 km/h (2 Bft)
12.09.2013 16:25 6,9 C 94 % 1019,2 hPa 1,4 l/m 1,9 km/h (1 Bft) S-SO 157 6,0 C 7,1 C 1,6 km/h (1 Bft)
12.09.2013 16:30 6,9 C 94 % 1019,2 hPa 0,0 l/m 1,4 km/h (1 Bft) O-SO 112 6,0 C 7,1 C 3,5 km/h (1 Bft)
12.09.2013 16:35 6,8 C 94 % 1019,2 hPa 0,7 l/m 1,6 km/h (1 Bft) O-NO 67 5,9 C 7,0 C 3,5 km/h (1 Bft)
12.09.2013 16:40 6,8 C 94 % 1019,2 hPa 0,7 l/m 2,1 km/h (1 Bft) O-SO 112 5,9 C 7,0 C 4,8 km/h (1 Bft)
12.09.2013 16:45 6,8 C 94 % 1019,2 hPa 0,7 l/m 2,3 km/h (1 Bft) O-SO 112 5,9 C 7,0 C 6,0 km/h (2 Bft)
12.09.2013 16:50 6,7 C 95 % 1019,2 hPa 0,0 l/m 2,9 km/h (1 Bft) S 180 6,0 C 7,0 C 5,8 km/h (2 Bft)
12.09.2013 16:55 6,8 C 95 % 1019,2 hPa 0,7 l/m 2,7 km/h (1 Bft) O 90 6,1 C 7,0 C 1,8 km/h (1 Bft)
12.09.2013 17:00 6,8 C 95 % 1019,4 hPa 0,7 l/m 2,6 km/h (1 Bft) SO 135 6,1 C 7,0 C 3,1 km/h (1 Bft)
12.09.2013 17:05 6,8 C 95 % 1019,4 hPa 0,7 l/m 1,9 km/h (1 Bft) O-NO 67 6,1 C 7,0 C 3,5 km/h (1 Bft)
12.09.2013 17:10 6,8 C 95 % 1019,4 hPa 0,0 l/m 1,8 km/h (1 Bft) S 180 6,1 C 7,0 C 0,0 km/h (0 Bft)
12.09.2013 17:15 6,9 C 95 % 1019,4 hPa 0,7 l/m 1,0 km/h (0 Bft) O 90 6,2 C 7,0 C 1,8 km/h (1 Bft)
12.09.2013 17:20 6,9 C 95 % 1019,3 hPa 0,7 l/m 0,5 km/h (0 Bft) O-SO 112 6,2 C 7,1 C 0,0 km/h (0 Bft)
12.09.2013 17:25 6,9 C 95 % 1019,3 hPa 0,0 l/m 1,6 km/h (1 Bft) S 180 6,2 C 7,1 C 2,1 km/h (1 Bft)
12.09.2013 17:30 6,9 C 95 % 1019,3 hPa 0,0 l/m 1,6 km/h (1 Bft) SO 135 6,2 C 7,1 C 0,0 km/h (0 Bft)
12.09.2013 17:35 6,9 C 95 % 1019,3 hPa 0,7 l/m 1,3 km/h (1 Bft) S-SO 157 6,2 C 7,1 C 0,0 km/h (0 Bft)
12.09.2013 17:40 6,8 C 95 % 1019,2 hPa 0,7 l/m 1,1 km/h (1 Bft) SO 135 6,1 C 7,0 C 1,6 km/h (1 Bft)
12.09.2013 17:45 6,9 C 95 % 1019,2 hPa 0,7 l/m 2,4 km/h (1 Bft) SO 135 6,2 C 7,0 C 5,0 km/h (1 Bft)
12.09.2013 17:50 6,9 C 95 % 1019,2 hPa 0,0 l/m 4,5 km/h (1 Bft) S 180 6,2 C 6,7 C 5,6 km/h (1 Bft)
12.09.2013 17:55 6,8 C 95 % 1019,2 hPa 0,7 l/m 4,7 km/h (1 Bft) S 180 6,1 C 6,4 C 6,8 km/h (2 Bft)
12.09.2013 18:00 6,9 C 95 % 1019,4 hPa 0,7 l/m 4,2 km/h (1 Bft) S-SO 157 6,2 C 6,8 C 3,4 km/h (1 Bft)
12.09.2013 18:05 7,0 C 95 % 1019,4 hPa 0,7 l/m 4,2 km/h (1 Bft) S 180 6,3 C 6,9 C 2,3 km/h (1 Bft)
12.09.2013 18:10 7,1 C 95 % 1019,4 hPa 0,0 l/m 4,5 km/h (1 Bft) S 180 6,4 C 6,8 C 8,5 km/h (2 Bft)
12.09.2013 18:15 7,2 C 95 % 1019,4 hPa 0,0 l/m 3,9 km/h (1 Bft) SO 135 6,5 C 7,2 C 4,3 km/h (1 Bft)
12.09.2013 18:20 7,2 C 95 % 1019,2 hPa 0,0 l/m 3,9 km/h (1 Bft) S-SW 202 6,5 C 7,1 C 5,1 km/h (1 Bft)
12.09.2013 18:25 7,2 C 95 % 1019,2 hPa 0,0 l/m 4,0 km/h (1 Bft) S 180 6,5 C 7,0 C 4,0 km/h (1 Bft)
12.09.2013 18:30 7,1 C 95 % 1019,2 hPa 0,0 l/m 3,2 km/h (1 Bft) S 180 6,4 C 7,3 C 2,1 km/h (1 Bft)
12.09.2013 18:35 7,1 C 95 % 1019,2 hPa 0,7 l/m 1,6 km/h (1 Bft) S 180 6,4 C 7,3 C 2,9 km/h (1 Bft)
12.09.2013 18:40 7,1 C 95 % 1019,3 hPa 0,0 l/m 1,9 km/h (1 Bft) S-SW 202 6,4 C 7,3 C 4,2 km/h (1 Bft)
12.09.2013 18:45 7,1 C 95 % 1019,3 hPa 0,7 l/m 3,4 km/h (1 Bft) O-NO 67 6,4 C 7,3 C 2,3 km/h (1 Bft)
12.09.2013 18:50 7,1 C 95 % 1019,3 hPa 0,0 l/m 3,9 km/h (1 Bft) O-SO 112 6,4 C 7,1 C 11,7 km/h (2 Bft)
12.09.2013 18:55 7,1 C 95 % 1019,3 hPa 0,0 l/m 3,7 km/h (1 Bft) O-SO 112 6,4 C 7,3 C 2,3 km/h (1 Bft)
12.09.2013 19:00 7,1 C 95 % 1019,3 hPa 0,0 l/m 3,2 km/h (1 Bft) O-SO 112 6,4 C 7,4 C 6,6 km/h (2 Bft)
12.09.2013 19:05 7,1 C 95 % 1019,3 hPa 0,7 l/m 2,1 km/h (1 Bft) S-SO 157 6,4 C 7,4 C 0,0 km/h (0 Bft)
12.09.2013 19:10 7,1 C 95 % 1019,3 hPa 0,7 l/m 2,4 km/h (1 Bft) S-SO 157 6,4 C 7,4 C 3,7 km/h (1 Bft)
12.09.2013 19:15 7,2 C 95 % 1019,3 hPa 0,0 l/m 2,3 km/h (1 Bft) S-SO 157 6,5 C 7,4 C 3,1 km/h (1 Bft)
12.09.2013 19:20 7,2 C 95 % 1019,5 hPa 0,0 l/m 2,6 km/h (1 Bft) S 180 6,5 C 7,4 C 0,0 km/h (0 Bft)
12.09.2013 19:25 7,2 C 95 % 1019,5 hPa 0,7 l/m 2,3 km/h (1 Bft) S 180 6,5 C 7,4 C 5,3 km/h (1 Bft)
12.09.2013 19:30 7,0 C 95 % 1019,5 hPa 0,0 l/m 2,1 km/h (1 Bft) S 180 6,3 C 7,4 C 3,5 km/h (1 Bft)
12.09.2013 19:35 7,0 C 95 % 1019,5 hPa 0,7 l/m 1,9 km/h (1 Bft) S-SW 202 6,3 C 7,3 C 1,6 km/h (1 Bft)
12.09.2013 19:40 7,0 C 95 % 1019,7 hPa 0,0 l/m 1,9 km/h (1 Bft) W-SW 247 6,3 C 7,3 C 3,7 km/h (1 Bft)
12.09.2013 19:45 7,1 C 95 % 1019,7 hPa 0,0 l/m 3,4 km/h (1 Bft) S 180 6,4 C 7,3 C 4,5 km/h (1 Bft)
12.09.2013 19:50 7,1 C 95 % 1019,7 hPa 0,0 l/m 3,9 km/h (1 Bft) S-SO 157 6,4 C 7,1 C 4,7 km/h (1 Bft)
12.09.2013 19:55 7,1 C 95 % 1019,7 hPa 0,0 l/m 4,3 km/h (1 Bft) O-SO 112 6,4 C 6,9 C 4,2 km/h (1 Bft)
12.09.2013 20:00 7,1 C 95 % 1019,8 hPa 0,0 l/m 5,3 km/h (1 Bft) S 180 6,4 C 6,6 C 13,2 km/h (3 Bft)
12.09.2013 20:05 7,2 C 96 % 1019,8 hPa 0,0 l/m 6,0 km/h (2 Bft) S 180 6,6 C 6,4 C 7,6 km/h (2 Bft)
12.09.2013 20:10 7,3 C 96 % 1019,8 hPa 0,0 l/m 5,8 km/h (2 Bft) S-SO 157 6,7 C 6,5 C 7,2 km/h (2 Bft)
12.09.2013 20:15 7,3 C 96 % 1019,8 hPa 0,0 l/m 4,8 km/h (1 Bft) S-SW 202 6,7 C 6,9 C 8,5 km/h (2 Bft)
12.09.2013 20:20 7,4 C 96 % 1020,1 hPa 0,0 l/m 5,0 km/h (1 Bft) S-SO 157 6,8 C 7,1 C 7,4 km/h (2 Bft)
12.09.2013 20:25 7,4 C 96 % 1020,1 hPa 0,0 l/m 3,9 km/h (1 Bft) S 180 6,8 C 7,5 C 8,2 km/h (2 Bft)
12.09.2013 20:30 7,4 C 96 % 1020,1 hPa 0,0 l/m 4,2 km/h (1 Bft) N-NW 337 6,8 C 7,3 C 8,2 km/h (2 Bft)
12.09.2013 20:35 7,4 C 96 % 1020,1 hPa 0,7 l/m 5,1 km/h (1 Bft) SO 135 6,8 C 7,0 C 4,8 km/h (1 Bft)
12.09.2013 20:40 7,4 C 96 % 1020,4 hPa 0,0 l/m 5,0 km/h (1 Bft) SO 135 6,8 C 7,1 C 10,8 km/h (2 Bft)
12.09.2013 20:45 7,4 C 96 % 1020,4 hPa 0,0 l/m 4,0 km/h (1 Bft) O-SO 112 6,8 C 7,4 C 6,4 km/h (2 Bft)
12.09.2013 20:50 7,4 C 96 % 1020,4 hPa 0,7 l/m 3,9 km/h (1 Bft) SO 135 6,8 C 7,5 C 5,0 km/h (1 Bft)
12.09.2013 20:55 7,4 C 96 % 1020,4 hPa 0,0 l/m 3,2 km/h (1 Bft) S-SO 157 6,8 C 7,6 C 6,4 km/h (2 Bft)
12.09.2013 21:00 7,4 C 96 % 1020,4 hPa 0,0 l/m 3,2 km/h (1 Bft) SO 135 6,8 C 7,5 C 3,5 km/h (1 Bft)
12.09.2013 21:05 7,4 C 96 % 1020,4 hPa 0,0 l/m 2,7 km/h (1 Bft) O-SO 112 6,8 C 7,6 C 2,7 km/h (1 Bft)
12.09.2013 21:10 7,4 C 96 % 1020,4 hPa 0,0 l/m 1,8 km/h (1 Bft) NO 45 6,8 C 7,6 C 0,0 km/h (0 Bft)
12.09.2013 21:15 7,3 C 96 % 1020,4 hPa 0,0 l/m 1,3 km/h (1 Bft) SO 135 6,7 C 7,6 C 2,3 km/h (1 Bft)
12.09.2013 21:20 7,4 C 96 % 1020,4 hPa 0,0 l/m 1,1 km/h (1 Bft) SO 135 6,8 C 7,5 C 0,0 km/h (0 Bft)
12.09.2013 21:25 7,3 C 96 % 1020,4 hPa 0,0 l/m 1,6 km/h (1 Bft) S 180 6,7 C 7,5 C 4,7 km/h (1 Bft)
12.09.2013 21:30 7,3 C 96 % 1020,4 hPa 0,0 l/m 1,1 km/h (1 Bft) S-SO 157 6,7 C 7,5 C 2,4 km/h (1 Bft)
12.09.2013 21:35 7,3 C 96 % 1020,4 hPa 0,0 l/m 0,5 km/h (0 Bft) O-SO 112 6,7 C 7,4 C 0,0 km/h (0 Bft)
12.09.2013 21:40 7,3 C 96 % 1020,6 hPa 0,0 l/m 0,6 km/h (0 Bft) O-SO 112 6,7 C 7,4 C 2,6 km/h (1 Bft)
12.09.2013 21:45 7,2 C 96 % 1020,6 hPa 0,0 l/m 0,8 km/h (0 Bft) S-SO 157 6,6 C 7,4 C 2,3 km/h (1 Bft)
12.09.2013 21:50 7,2 C 96 % 1020,6 hPa 0,7 l/m 1,3 km/h (1 Bft) S 180 6,6 C 7,4 C 2,3 km/h (1 Bft)
12.09.2013 21:55 7,2 C 96 % 1020,6 hPa 0,0 l/m 2,1 km/h (1 Bft) S 180 6,6 C 7,4 C 1,6 km/h (1 Bft)
12.09.2013 22:00 7,1 C 96 % 1020,5 hPa 0,7 l/m 1,8 km/h (1 Bft) SO 135 6,5 C 7,4 C 0,0 km/h (0 Bft)
12.09.2013 22:05 7,1 C 96 % 1020,5 hPa 0,0 l/m 1,4 km/h (1 Bft) SO 135 6,5 C 7,4 C 4,3 km/h (1 Bft)
12.09.2013 22:10 7,1 C 96 % 1020,5 hPa 0,0 l/m 1,9 km/h (1 Bft) SO 135 6,5 C 7,4 C 5,5 km/h (1 Bft)
12.09.2013 22:15 7,2 C 96 % 1020,5 hPa 0,7 l/m 2,9 km/h (1 Bft) SO 135 6,6 C 7,4 C 0,0 km/h (0 Bft)
12.09.2013 22:20 7,2 C 96 % 1020,5 hPa 0,0 l/m 2,9 km/h (1 Bft) S 180 6,6 C 7,4 C 5,8 km/h (2 Bft)
12.09.2013 22:25 7,3 C 96 % 1020,5 hPa 0,0 l/m 3,9 km/h (1 Bft) S-SO 157 6,7 C 7,2 C 12,9 km/h (3 Bft)
12.09.2013 22:30 7,3 C 96 % 1020,5 hPa 0,0 l/m 4,5 km/h (1 Bft) SO 135 6,7 C 6,9 C 0,0 km/h (0 Bft)
12.09.2013 22:35 7,3 C 96 % 1020,5 hPa 0,0 l/m 3,7 km/h (1 Bft) O-SO 112 6,7 C 7,4 C 0,0 km/h (0 Bft)
12.09.2013 22:40 7,4 C 96 % 1020,6 hPa 0,0 l/m 2,4 km/h (1 Bft) S-SO 157 6,8 C 7,5 C 4,8 km/h (1 Bft)
12.09.2013 22:45 7,3 C 96 % 1020,6 hPa 0,0 l/m 2,1 km/h (1 Bft) O-SO 112 6,7 C 7,5 C 1,9 km/h (1 Bft)
12.09.2013 22:50 7,3 C 96 % 1020,6 hPa 0,0 l/m 2,3 km/h (1 Bft) SO 135 6,7 C 7,5 C 1,9 km/h (1 Bft)
12.09.2013 22:55 7,2 C 96 % 1020,6 hPa 0,0 l/m 1,0 km/h (0 Bft) S-SO 157 6,6 C 7,5 C 0,0 km/h (0 Bft)
12.09.2013 23:00 7,2 C 96 % 1020,6 hPa 0,0 l/m 0,6 km/h (0 Bft) S-SO 157 6,6 C 7,4 C 4,2 km/h (1 Bft)
12.09.2013 23:05 7,2 C 96 % 1020,6 hPa 0,0 l/m 1,6 km/h (1 Bft) S-SW 202 6,6 C 7,4 C 4,5 km/h (1 Bft)
12.09.2013 23:10 7,2 C 96 % 1020,6 hPa 0,0 l/m 1,9 km/h (1 Bft) S 180 6,6 C 7,4 C 2,3 km/h (1 Bft)
12.09.2013 23:15 7,1 C 96 % 1020,6 hPa 0,7 l/m 1,9 km/h (1 Bft) S 180 6,5 C 7,4 C 3,9 km/h (1 Bft)
12.09.2013 23:20 7,2 C 96 % 1020,7 hPa 0,0 l/m 2,7 km/h (1 Bft) S-SW 202 6,6 C 7,4 C 5,6 km/h (1 Bft)
12.09.2013 23:25 7,2 C 96 % 1020,7 hPa 0,0 l/m 3,1 km/h (1 Bft) O-SO 112 6,6 C 7,4 C 2,6 km/h (1 Bft)
12.09.2013 23:30 7,2 C 96 % 1020,7 hPa 0,0 l/m 3,4 km/h (1 Bft) S-SW 202 6,6 C 7,4 C 9,2 km/h (2 Bft)
12.09.2013 23:35 7,2 C 96 % 1020,7 hPa 0,0 l/m 4,5 km/h (1 Bft) W-SW 247 6,6 C 6,9 C 6,1 km/h (2 Bft)
12.09.2013 23:40 7,2 C 96 % 1020,8 hPa 0,0 l/m 5,1 km/h (1 Bft) NO 45 6,6 C 6,7 C 6,6 km/h (2 Bft)
12.09.2013 23:45 7,1 C 96 % 1020,8 hPa 0,0 l/m 5,3 km/h (1 Bft) S-SW 202 6,5 C 6,7 C 7,1 km/h (2 Bft)
12.09.2013 23:50 7,1 C 96 % 1020,8 hPa 0,7 l/m 4,7 km/h (1 Bft) S 180 6,5 C 6,8 C 3,9 km/h (1 Bft)
12.09.2013 23:55 7,1 C 96 % 1020,8 hPa 0,0 l/m 3,7 km/h (1 Bft) S-SO 157 6,5 C 7,2 C 3,1 km/h (1 Bft)
_ Min-Zeit 16:50 11:15 05:55 - 12:45 - - 12:05 14:25 22:55
Minimum _ 6,7 C 82 % 1016,0 hPa - 0,0 km/h (0 Bft) - - 5,6 C 5,8 C 0,0 km/h (0 Bft)
_ Max-Zeit 13:25 23:55 23:55 16:25 11:20 - - 10:30 13:35 14:10
Maximum _ 12,5 C 96 % 1020,8 hPa 1,4 l/m 8,9 km/h
NO (2 Bft)
- - 10,3 C 13,5 C 19,3 km/h
S-SO (3 Bft)
Durchschnitt _ 7,9 C 93 % 1018,2 hPa #35,0 l/m 2,7 km/h (1 Bft) S - 6,9 C 7,9 C 3,8 km/h (1 Bft)